Tracking 18850 objects as of 22-Nov-2017
HD Live streaming from Space Station
objects crossing your sky now

FENGYUN 1C DEB

Track FENGYUN 1C DEB now!
10-day predictions


NORAD ID: 32154
Int'l Code: 1999-025CSY
Perigee: 540.1 km
Apogee: 616.1 km
Inclination: 99.1 °
Period: 96.1 minutes
Semi major axis: 6949 km
RCS: 0.0067 m2 (small)
Launch date: May 10, 1999
Source: People's Republic of China (PRC)
Launch site: Taiyaun Space Center, China (TSC)

Note: This is SATELLITE DEBRIS
aabbcc
Your satellite tracking list
Your tracking list is empty




NASA's NSSDC Master Catalog

Two Line Element Set (TLE):
1 32154U 99025CSY 17325.86103892  .00018347  00000-0  14829-2 0  9994
2 32154  99.0531 338.6127 0054664 298.1851  61.3853 14.98694725549125
Source of the keplerian elements: AFSPC